TimeEDT,TemperatureF,Dew PointF,Humidity,Sea Level PressureIn,VisibilityMPH,Wind Direction,Wind SpeedMPH,Gust SpeedMPH,PrecipitationIn,Events,Conditions,WindDirDegrees,DateUTC
12:53 AM,39.0,37.0,93,29.73,4.0,WSW,8.1,-,0.00,,Overcast,250,2012-11-01 04:53:00
1:22 AM,39.2,37.4,93,29.71,8.0,WSW,8.1,-,N/A,,Overcast,250,2012-11-01 05:22:00
1:53 AM,39.0,37.0,93,29.73,7.0,WSW,6.9,-,N/A,,Overcast,240,2012-11-01 05:53:00
2:20 AM,39.2,37.4,93,29.71,5.0,WSW,8.1,-,N/A,,Overcast,250,2012-11-01 06:20:00
2:44 AM,39.2,37.4,93,29.71,5.0,WSW,6.9,-,N/A,,Overcast,250,2012-11-01 06:44:00
2:53 AM,39.0,37.0,93,29.73,6.0,WSW,5.8,-,N/A,,Overcast,250,2012-11-01 06:53:00
3:14 AM,39.2,37.4,93,29.72,3.0,WSW,6.9,-,N/A,,Overcast,250,2012-11-01 07:14:00
3:53 AM,39.0,37.0,93,29.73,5.0,West,6.9,-,N/A,,Overcast,260,2012-11-01 07:53:00
4:04 AM,39.2,37.4,93,29.72,6.0,West,4.6,-,N/A,,Overcast,260,2012-11-01 08:04:00
4:53 AM,39.0,37.9,96,29.73,6.0,WSW,6.9,-,N/A,,Overcast,240,2012-11-01 08:53:00
5:26 AM,39.2,37.4,93,29.72,8.0,WSW,5.8,-,N/A,,Overcast,250,2012-11-01 09:26:00
6:00 AM,39.2,37.4,93,29.72,10.0,WSW,4.6,-,N/A,,Overcast,240,2012-11-01 10:00:00
6:35 AM,39.2,37.4,93,29.72,7.0,WSW,5.8,-,N/A,,Overcast,250,2012-11-01 10:35:00
6:53 AM,39.0,37.9,96,29.74,3.0,WSW,5.8,-,N/A,,Overcast,250,2012-11-01 10:53:00
7:53 AM,39.0,37.9,96,29.76,3.0,WSW,5.8,-,0.01,,Overcast,250,2012-11-01 11:53:00
8:05 AM,39.2,37.4,93,29.74,3.0,WSW,5.8,-,N/A,,Overcast,240,2012-11-01 12:05:00
8:32 AM,39.2,37.4,93,29.75,3.0,WSW,8.1,-,0.01,,Overcast,250,2012-11-01 12:32:00
8:39 AM,39.2,37.4,93,29.75,2.5,WSW,8.1,-,0.01,,Overcast,250,2012-11-01 12:39:00
8:46 AM,39.2,37.4,93,29.75,3.0,WSW,8.1,-,0.01,,Overcast,250,2012-11-01 12:46:00
9:04 AM,39.2,37.4,93,29.76,3.0,West,6.9,-,N/A,,Overcast,260,2012-11-01 13:04:00
9:41 AM,39.2,37.4,93,29.76,4.0,WSW,6.9,-,0.00,Rain,Light Rain,240,2012-11-01 13:41:00
9:53 AM,39.9,37.9,93,29.78,6.0,WSW,8.1,-,0.00,,Overcast,240,2012-11-01 13:53:00
10:53 AM,39.9,37.0,89,29.79,6.0,WSW,6.9,-,N/A,,Overcast,240,2012-11-01 14:53:00
11:53 AM,42.1,37.0,82,29.79,10.0,West,10.4,-,N/A,,Overcast,260,2012-11-01 15:53:00
12:44 PM,44.6,33.8,66,29.77,10.0,West,9.2,-,N/A,,Mostly Cloudy,280,2012-11-01 16:44:00
1:53 PM,45.0,33.1,63,29.77,10.0,West,13.8,-,N/A,,Overcast,270,2012-11-01 17:53:00
2:53 PM,46.9,33.1,59,29.75,10.0,West,12.7,20.7,N/A,,Overcast,260,2012-11-01 18:53:00
5:53 PM,45.0,30.9,58,29.77,10.0,WNW,6.9,-,N/A,,Mostly Cloudy,290,2012-11-01 21:53:00
6:53 PM,45.0,32.0,60,29.78,10.0,West,5.8,-,N/A,,Overcast,270,2012-11-01 22:53:00
7:53 PM,45.0,32.0,60,29.81,10.0,West,6.9,-,N/A,,Overcast,270,2012-11-01 23:53:00
8:53 PM,43.0,30.9,62,29.81,10.0,WSW,3.5,-,N/A,,Overcast,250,2012-11-02 00:53:00
9:53 PM,44.1,30.9,60,29.81,10.0,WSW,4.6,-,0.00,,Overcast,250,2012-11-02 01:53:00
10:53 PM,43.0,30.0,60,29.81,10.0,WSW,3.5,-,N/A,,Overcast,250,2012-11-02 02:53:00
11:53 PM,43.0,30.9,62,29.81,10.0,West,4.6,-,N/A,,Overcast,260,2012-11-02 03:53:00